This is the latest recevied weather packets stored in our database for station/object W4MLN-1. If no packets are shown the sender has not sent any weather packets the latest 10 day(s).
| Time | Temp. | Humidity | Pressure | Rain* | Wind** | Luminosity | Snow |
|---|---|---|---|---|---|---|---|
| 1777946720 | 13.89° C | 61% | 1014.7 hPa | 0 mm | - | 0 W/m² | - |
| 1777946419 | 14.44° C | 59% | 1014.8 hPa | 0 mm | - | 0 W/m² | - |
| 1777946120 | 14.44° C | 63% | 1014.7 hPa | 0 mm | - | 0 W/m² | - |
| 1777945816 | 15° C | 61% | 1014.7 hPa | 0 mm | - | 0 W/m² | - |
| 1777945517 | 15.56° C | 57% | 1014.7 hPa | 0 mm | - | 0 W/m² | - |
| 1777945213 | 15.56° C | 56% | 1014.7 hPa | 0 mm | - | 0 W/m² | - |
| 1777944911 | 16.11° C | 54% | 1014.6 hPa | 0 mm | - | 0 W/m² | - |
| 1777944611 | 16.67° C | 54% | 1014.6 hPa | 0 mm | - | 0 W/m² | - |
| 1777944311 | 17.22° C | 51% | 1014.5 hPa | 0 mm | - | 0 W/m² | - |
| 1777944011 | 17.22° C | 49% | 1014.4 hPa | 0 mm | - | 0 W/m² | - |
| 1777943711 | 17.22° C | 49% | 1014.3 hPa | 0 mm | - | 0 W/m² | - |
| 1777943411 | 17.22° C | 49% | 1014.1 hPa | 0 mm | - | 0 W/m² | - |
| 1777943112 | 17.22° C | 48% | 1014.3 hPa | 0 mm | - | 0 W/m² | - |
| 1777942811 | 17.22° C | 49% | 1014.1 hPa | 0 mm | - | 0 W/m² | - |
| 1777942512 | 17.78° C | 48% | 1014 hPa | 0 mm | - | 0 W/m² | - |
| 1777942208 | 17.78° C | 48% | 1014 hPa | 0 mm | - | 0 W/m² | - |
| 1777941906 | 17.78° C | 49% | 1013.8 hPa | 0 mm | - | 0 W/m² | - |
| 1777941606 | 17.78° C | 48% | 1013.8 hPa | 0 mm | - | 0 W/m² | - |
| 1777941304 | 17.78° C | 47% | 1013.7 hPa | 0 mm | - | 0 W/m² | - |
| 1777941004 | 17.78° C | 48% | 1013.6 hPa | 0 mm | - | 0 W/m² | - |
| 1777940703 | 17.78° C | 48% | 1013.5 hPa | 0 mm | - | 0 W/m² | - |
| 1777940404 | 18.33° C | 48% | 1013.5 hPa | 0 mm | - | 3 W/m² | - |
| 1777940103 | 18.33° C | 47% | 1013.5 hPa | 0 mm | - | 4 W/m² | - |
| 1777939804 | 18.33° C | 46% | 1013.5 hPa | 0 mm | - | 7 W/m² | - |
| 1777939504 | 18.89° C | 46% | 1013.5 hPa | 0 mm | - | 10 W/m² | - |
* Rain latest hour (hover to see other rain measurements)
** Current wind speed in m/s (hover to see current wind gust speed)